TimeCDT,TemperatureF,Dew PointF,Humidity,Sea Level PressureIn,VisibilityMPH,Wind Direction,Wind SpeedMPH,Gust SpeedMPH,PrecipitationIn,Events,Conditions,WindDirDegrees,DateUTC
12:53 AM,75.0,66.9,76,29.65,10.0,North,-9999.0,-,N/A,,Clear,0,2013-05-28 05:53:00
1:53 AM,73.9,66.0,76,29.64,10.0,North,-9999.0,-,N/A,,Clear,0,2013-05-28 06:53:00
2:53 AM,73.9,66.0,76,29.62,10.0,North,-9999.0,-,N/A,,Clear,0,2013-05-28 07:53:00
3:53 AM,73.0,66.0,79,29.64,10.0,North,-9999.0,-,N/A,,Clear,0,2013-05-28 08:53:00
4:53 AM,72.0,66.0,81,29.66,10.0,North,-9999.0,-,N/A,,Clear,0,2013-05-28 09:53:00
5:53 AM,71.1,66.0,84,29.67,10.0,North,-9999.0,-,N/A,,Clear,0,2013-05-28 10:53:00
6:53 AM,71.1,66.9,87,29.68,10.0,North,-9999.0,-,N/A,,Clear,0,2013-05-28 11:53:00
7:53 AM,72.0,68.0,87,29.70,10.0,North,-9999.0,-,N/A,,Clear,0,2013-05-28 12:53:00
8:53 AM,73.9,70.0,87,29.69,10.0,North,-9999.0,-,N/A,,Clear,0,2013-05-28 13:53:00
9:53 AM,77.0,69.1,76,29.67,10.0,North,-9999.0,-,N/A,,Clear,0,2013-05-28 14:53:00
10:53 AM,78.1,69.1,74,29.68,10.0,North,-9999.0,-,N/A,,Partly Cloudy,0,2013-05-28 15:53:00
11:36 AM,82.4,69.8,66,29.75,10.0,North,-9999.0,-,N/A,,Mostly Cloudy,0,2013-05-28 16:36:00
11:53 AM,82.0,68.0,62,29.68,10.0,South,26.5,39.1,N/A,,Mostly Cloudy,180,2013-05-28 16:53:00
12:07 PM,82.4,68.0,62,29.76,10.0,South,29.9,38.0,N/A,,Mostly Cloudy,180,2013-05-28 17:07:00
12:53 PM,80.1,66.9,64,29.69,10.0,South,26.5,35.7,N/A,,Overcast,170,2013-05-28 17:53:00
1:53 PM,82.0,66.0,58,29.67,10.0,South,29.9,35.7,N/A,,Clear,190,2013-05-28 18:53:00
2:53 PM,82.9,64.9,54,29.66,10.0,South,20.7,27.6,N/A,,Clear,170,2013-05-28 19:53:00
3:53 PM,80.1,64.0,58,29.66,10.0,South,28.8,33.4,N/A,,Clear,170,2013-05-28 20:53:00
4:53 PM,79.0,64.0,60,29.65,10.0,SSE,32.2,42.6,N/A,,Partly Cloudy,160,2013-05-28 21:53:00
5:53 PM,78.1,63.0,60,29.63,10.0,South,31.1,41.4,N/A,,Clear,170,2013-05-28 22:53:00
6:53 PM,78.1,64.0,62,29.62,10.0,SSE,26.5,33.4,N/A,,Clear,150,2013-05-28 23:53:00
7:53 PM,75.0,64.0,69,29.64,10.0,SSE,18.4,26.5,N/A,,Clear,160,2013-05-29 00:53:00
8:53 PM,73.0,64.0,73,29.68,10.0,SSE,15.0,-,N/A,,Scattered Clouds,160,2013-05-29 01:53:00
9:53 PM,71.1,64.0,78,29.68,10.0,SE,9.2,-,N/A,,Clear,140,2013-05-29 02:53:00
10:53 PM,70.0,64.9,84,29.70,10.0,ESE,10.4,-,N/A,,Partly Cloudy,120,2013-05-29 03:53:00
11:53 PM,72.0,66.0,81,29.70,10.0,SE,12.7,-,N/A,,Overcast,130,2013-05-29 04:53:00